User: anonymous   Login
Location: Casa Rossa
(45.2389°N, 12.2056°E)
Time: 11:50:03
(UTC+00:00)
Language:

Cosmos 1818 - Orbit

View from above orbital plane
View from above orbital plane
View from above satellite
View from above satellite

Ground track
Ground track

The orbit data is extracted from the following two-line orbital elements,

1 17369U 87011A   20270.71895819 -.00000105  00000-0 -19002-5 0  9997
2 17369  65.0126 339.8888 0014755 284.4104  75.5343 14.31458366810030
Epoch (UTC): 26 September 2020 17:15:17
Eccentricity: 0.0014755
inclination: 65.0126°
perigee height: 776 km
apogee height: 797 km
right ascension of ascending node: 339.8888°
argument of perigee: 284.4104°
revolutions per day: 14.31458366
mean anomaly at epoch: 75.5343°
orbit number at epoch: 81003

The dashed part of the orbit path shows where the satellite is in the earth's shadow,  

DLR